EN

Hourly Weather Kyzylsu

Today, 6 August, Friday

Time Temperature Precipitation Wind Pressure Humidity
00:00 +28°C° 0 mm 4 mps 715 mmHg 18%
01:00 +28°C° 0 mm 4 mps 715 mmHg 20%
02:00 +27°C° 0 mm 4 mps 714 mmHg 22%
03:00 +27°C° 0 mm 3 mps 714 mmHg 23%
04:00 +26°C° 0 mm 3 mps 714 mmHg 24%
05:00 +26°C° 0 mm 3 mps 714 mmHg 25%
06:00 +28°C° 0 mm 3 mps 715 mmHg 23%
07:00 +31°C° 0 mm 3 mps 715 mmHg 20%
08:00 +34°C° 0 mm 4 mps 715 mmHg 18%
09:00 +36°C° 0 mm 4 mps 715 mmHg 16%
10:00 +38°C° 0 mm 4 mps 715 mmHg 14%
11:00 +41°C° 0 mm 5 mps 715 mmHg 12%
12:00 +42°C° 0 mm 5 mps 715 mmHg 11%
13:00 +42°C° 0 mm 5 mps 715 mmHg 10%
14:00 +44°C° 0 mm 6 mps 714 mmHg 9%
15:00 +44°C° 0 mm 6 mps 714 mmHg 9%
16:00 +43°C° 0 mm 7 mps 714 mmHg 9%
17:00 +43°C° 0 mm 8 mps 714 mmHg 10%
18:00 +40°C° 0 mm 7 mps 714 mmHg 11%
19:00 +36°C° 0 mm 6 mps 714 mmHg 13%
20:00 +34°C° 0 mm 5 mps 714 mmHg 14%
21:00 +33°C° 0 mm 5 mps 714 mmHg 16%
22:00 +32°C° 0 mm 5 mps 714 mmHg 17%
23:00 +30°C° 0 mm 5 mps 714 mmHg 18%

Tomorrow, 7 August, Saturday

Time Temperature Precipitation Wind Pressure Humidity
00:00 +30°C° 0 mm 4 mps 714 mmHg 20%
01:00 +29°C° 0 mm 4 mps 714 mmHg 21%
02:00 +28°C° 0 mm 3 mps 714 mmHg 23%
03:00 +27°C° 0 mm 3 mps 714 mmHg 24%
04:00 +27°C° 0 mm 3 mps 714 mmHg 25%
05:00 +27°C° 0 mm 3 mps 714 mmHg 25%
06:00 +29°C° 0 mm 3 mps 715 mmHg 22%
07:00 +31°C° 0 mm 2 mps 715 mmHg 19%
08:00 +35°C° 0 mm 2 mps 716 mmHg 16%
09:00 +36°C° 0 mm 3 mps 716 mmHg 14%
10:00 +38°C° 0 mm 3 mps 716 mmHg 12%
11:00 +41°C° 0 mm 4 mps 716 mmHg 11%
12:00 +42°C° 0 mm 4 mps 715 mmHg 10%
13:00 +43°C° 0 mm 5 mps 715 mmHg 9%
14:00 +43°C° 0 mm 5 mps 715 mmHg 9%
15:00 +43°C° 0 mm 5 mps 715 mmHg 9%
16:00 +44°C° 0 mm 6 mps 715 mmHg 9%
17:00 +44°C° 0 mm 6 mps 715 mmHg 9%
18:00 +40°C° 0 mm 5 mps 715 mmHg 11%
19:00 +37°C° 0 mm 4 mps 715 mmHg 13%
20:00 +34°C° 0 mm 3 mps 715 mmHg 15%
21:00 +33°C° 0 mm 3 mps 715 mmHg 17%
22:00 +31°C° 0 mm 3 mps 715 mmHg 18%
23:00 +30°C° 0 mm 3 mps 715 mmHg 19%

Day after tomorrow, 8 August, Sunday

Time Temperature Precipitation Wind Pressure Humidity
00:00 +29°C° 0 mm 2 mps 715 mmHg 20%
01:00 +29°C° 0 mm 2 mps 715 mmHg 21%
02:00 +28°C° 0 mm 2 mps 715 mmHg 22%
03:00 +28°C° 0 mm 2 mps 715 mmHg 22%
04:00 +27°C° 0 mm 2 mps 715 mmHg 22%
05:00 +27°C° 0 mm 2 mps 716 mmHg 22%
06:00 +30°C° 0 mm 2 mps 716 mmHg 20%
07:00 +32°C° 0 mm 1 mps 716 mmHg 17%
08:00 +34°C° 0 mm 1 mps 717 mmHg 14%
09:00 +37°C° 0 mm 2 mps 717 mmHg 13%
10:00 +39°C° 0 mm 3 mps 717 mmHg 12%
11:00 +42°C° 0 mm 4 mps 717 mmHg 10%
12:00 +42°C° 0 mm 5 mps 717 mmHg 10%
13:00 +43°C° 0 mm 5 mps 717 mmHg 10%
14:00 +43°C° 0 mm 5 mps 717 mmHg 10%
15:00 +44°C° 0 mm 6 mps 717 mmHg 10%
16:00 +42°C° 0 mm 6 mps 717 mmHg 10%
17:00 +43°C° 0 mm 7 mps 717 mmHg 11%
18:00 +39°C° 0 mm 5 mps 717 mmHg 11%
19:00 +35°C° 0 mm 4 mps 717 mmHg 12%
20:00 +31°C° 0 mm 3 mps 717 mmHg 13%
21:00 +30°C° 0 mm 3 mps 717 mmHg 15%
22:00 +29°C° 0 mm 3 mps 717 mmHg 17%
23:00 +28°C° 0 mm 3 mps 717 mmHg 19%

9 August, Monday

Time Temperature Precipitation Wind Pressure Humidity
00:00 +27°C° 0 mm 2 mps 717 mmHg 21%
01:00 +26°C° 0 mm 2 mps 716 mmHg 22%
02:00 +25°C° 0 mm 2 mps 716 mmHg 24%
03:00 +25°C° 0 mm 2 mps 716 mmHg 25%
04:00 +24°C° 0 mm 2 mps 717 mmHg 26%
05:00 +24°C° 0 mm 2 mps 717 mmHg 27%
06:00 +26°C° 0 mm 1 mps 717 mmHg 24%
07:00 +27°C° 0 mm 1 mps 718 mmHg 21%
08:00 +29°C° 0 mm 1 mps 718 mmHg 19%
09:00 +31°C° 0 mm 2 mps 718 mmHg 17%
10:00 +34°C° 0 mm 3 mps 718 mmHg 15%
11:00 +36°C° 0 mm 4 mps 719 mmHg 13%
12:00 +37°C° 0 mm 4 mps 719 mmHg 12%
13:00 +39°C° 0 mm 5 mps 718 mmHg 11%
14:00 +39°C° 0 mm 5 mps 718 mmHg 10%
15:00 +39°C° 0 mm 5 mps 718 mmHg 10%
16:00 +39°C° 0 mm 5 mps 719 mmHg 10%
17:00 +39°C° 0 mm 5 mps 719 mmHg 9%
18:00 +35°C° 0 mm 5 mps 719 mmHg 12%
19:00 +32°C° 0 mm 4 mps 719 mmHg 14%
20:00 +29°C° 0 mm 3 mps 719 mmHg 16%
21:00 +27°C° 0 mm 3 mps 719 mmHg 19%
22:00 +26°C° 0 mm 3 mps 719 mmHg 22%
23:00 +25°C° 0 mm 2 mps 719 mmHg 25%

10 August, Tuesday

Time Temperature Precipitation Wind Pressure Humidity
00:00 +24°C° 0 mm 2 mps 719 mmHg 26%
01:00 +24°C° 0 mm 2 mps 719 mmHg 27%
02:00 +23°C° 0 mm 2 mps 718 mmHg 28%
03:00 +22°C° 0 mm 3 mps 718 mmHg 29%
04:00 +21°C° 0 mm 3 mps 718 mmHg 30%
05:00 +21°C° 0 mm 3 mps 718 mmHg 31%
06:00 +24°C° 0 mm 3 mps 719 mmHg 27%
07:00 +27°C° 0 mm 3 mps 719 mmHg 23%
08:00 +29°C° 0 mm 4 mps 719 mmHg 20%
09:00 +32°C° 0 mm 4 mps 719 mmHg 17%
10:00 +34°C° 0 mm 4 mps 719 mmHg 15%
11:00 +36°C° 0 mm 4 mps 719 mmHg 12%
12:00 +37°C° 0 mm 4 mps 719 mmHg 11%
13:00 +38°C° 0 mm 4 mps 718 mmHg 10%
14:00 +40°C° 0 mm 4 mps 718 mmHg 9%
15:00 +40°C° 0 mm 5 mps 718 mmHg 10%
16:00 +40°C° 0 mm 6 mps 717 mmHg 10%
17:00 +40°C° 0 mm 7 mps 717 mmHg 10%
18:00 +36°C° 0 mm 6 mps 717 mmHg 12%
19:00 +34°C° 0 mm 6 mps 717 mmHg 14%
20:00 +30°C° 0 mm 5 mps 717 mmHg 17%
21:00 +29°C° 0 mm 5 mps 717 mmHg 19%
22:00 +28°C° 0 mm 5 mps 717 mmHg 21%
23:00 +27°C° 0 mm 4 mps 717 mmHg 24%

11 August, Wednesday

Time Temperature Precipitation Wind Pressure Humidity
00:00 +26°C° 0 mm 4 mps 717 mmHg 25%
01:00 +25°C° 0 mm 4 mps 716 mmHg 26%
02:00 +25°C° 0 mm 4 mps 716 mmHg 27%
03:00 +24°C° 0 mm 3 mps 716 mmHg 28%
04:00 +24°C° 0 mm 3 mps 716 mmHg 29%
05:00 +22°C° 0 mm 3 mps 716 mmHg 30%
06:00 +25°C° 0 mm 3 mps 716 mmHg 26%
07:00 +28°C° 0 mm 3 mps 717 mmHg 23%
08:00 +30°C° 0 mm 3 mps 717 mmHg 20%
09:00 +33°C° 0 mm 3 mps 717 mmHg 17%
10:00 +36°C° 0 mm 3 mps 717 mmHg 14%
11:00 +38°C° 0 mm 3 mps 717 mmHg 12%
12:00 +39°C° 0 mm 2 mps 717 mmHg 10%
13:00 +40°C° 0 mm 2 mps 716 mmHg 9%
14:00 +41°C° 0 mm 2 mps 716 mmHg 8%
15:00 +41°C° 0 mm 2 mps 716 mmHg 8%
16:00 +42°C° 0 mm 3 mps 716 mmHg 8%
17:00 +42°C° 0 mm 3 mps 715 mmHg 8%
18:00 +38°C° 0 mm 4 mps 715 mmHg 11%
19:00 +36°C° 0 mm 4 mps 715 mmHg 13%
20:00 +33°C° 0 mm 5 mps 715 mmHg 16%
21:00 +32°C° 0 mm 5 mps 715 mmHg 18%
22:00 +30°C° 0 mm 4 mps 716 mmHg 20%
23:00 +28°C° 0 mm 4 mps 716 mmHg 21%
Show more